Regional Weather Roundup
Issued by NWS

Home | Current Version | Previous Version | Text Only | Print | Product List | Glossary On
Versions: 1 2 3 4 5 6 7 8 9 10 11 12 13 14 15 16 17 18 19 20 21 22 23 24 25 26 27 28 29 30 31 32 33 34 35 36 37 38 39 40 41 42 43 44 45 46 47 48 49 50
000
ASUS43 KLMK 270810
RWRKY
KENTUCKY REGIONAL WEATHER ROUNDUP
NATIONAL WEATHER SERVICE LOUISVILLE KY
300 AM EST TUE JAN 27 2015

NOTE "FAIR" INDICATES FEW OR NO CLOUDS BELOW 12,000 FEET
WITH NO SIGNIFICANT WEATHER AND/OR OBSTRUCTIONS TO VISIBILITY.

KYZ001>023-026-027-061>063-070>075-270900-
WESTERN AND SOUTH CENTRAL KENTUCKY

CITY           SKY/WX    TMP DP  RH WIND       PRES   REMARKS
PADUCAH        CLOUDY    37  31  78 CALM      29.90R
HENDERSON      CLOUDY    30  27  86 CALM      29.91R
OWENSBORO      FRZ RAIN  31  30  96 SE3       29.92R FOG
HOPKINSVILLE   CLOUDY    34  31  89 E2        29.89S
BOWLING GREEN  CLOUDY    32  29  88 CALM      29.91S FOG
GLASGOW        MIX PCPN  31  31 100 CALM      29.90R
$$

KYZ024-025-028>034-038-045-046-053-270900-
NORTH CENTRAL KENTUCKY

CITY           SKY/WX    TMP DP  RH WIND       PRES   REMARKS
LOUISVILLE/SDF LGT SNOW  30  27  88 W3        29.92S FOG
LOUISVILLE/LOU LGT SNOW  29  26  89 NW5       29.92S FOG     WCI  24
FORT KNOX      LGT SNOW  28  27  94 CALM      29.90R FOG
$$

KYZ035>037-039>044-047>052-055>060-089>105-270900-
NORTHEAST KENTUCKY

CITY           SKY/WX    TMP DP  RH WIND       PRES   REMARKS
LEXINGTON      FLURRIES  28  24  85 CALM      29.89F
COVINGTON      CLOUDY    24  15  68 NE6       29.91R WCI  17
FRANKFORT      FLURRIES  28  24  85 CALM      29.89S
$$

KYZ054-064>069-076>088-106>120-270900-
SOUTHEAST KENTUCKY

CITY           SKY/WX    TMP DP  RH WIND       PRES   REMARKS
JACKSON        CLOUDY    26  22  84 CALM      29.87S
LONDON         CLOUDY    30  24  78 CALM      29.88S
SOMERSET       CLOUDY    28  28 100 CALM      29.90F
MIDDLESBORO    CLOUDY    31  26  81 CALM      29.88S
MONTICELLO     CLOUDY    30  29  96 CALM      29.91F FOG
$$



USA.gov is the U.S. government's official web portal to all federal, state and local government web resources and services.